ProjectID,Date,Electric Generation,Electric Utility Import,Facility Electric Load
,YYYY-MM-DD,kW,kW,kW
307,2016-02-01,33.416666666666664,,33.416666666666664
307,2016-02-02,61.333333333333336,,61.333333333333336
307,2016-02-03,3.4583333333333335,,3.4583333333333335
307,2016-02-04,23.166666666666668,,23.166666666666668
307,2016-02-05,4.083333333333333,,4.083333333333333
307,2016-02-06,56.375,,56.375
307,2016-02-07,62.208333333333336,,62.208333333333336
307,2016-02-08,23.666666666666668,,23.666666666666668
307,2016-02-09,29.375,,29.375
307,2016-02-10,35.166666666666664,,35.166666666666664
307,2016-02-11,55.166666666666664,,55.166666666666664
307,2016-02-12,59.833333333333336,,59.833333333333336
307,2016-02-13,79.58333333333333,,79.58333333333333
307,2016-02-14,82.625,,82.625
307,2016-02-15,11.25,,11.25
307,2016-02-16,7.125,,7.125
307,2016-02-17,19.0,,19.0
307,2016-02-18,83.70833333333333,,83.70833333333333
307,2016-02-19,59.208333333333336,,59.208333333333336
307,2016-02-20,61.083333333333336,,61.083333333333336
307,2016-02-21,40.333333333333336,,40.333333333333336
307,2016-02-22,81.54166666666667,,81.54166666666667
307,2016-02-23,11.375,,11.375
307,2016-02-24,7.208333333333333,,7.208333333333333
307,2016-02-25,16.791666666666668,,16.791666666666668
307,2016-02-26,90.875,,90.875
307,2016-02-27,83.91666666666667,,83.91666666666667
307,2016-02-28,84.33333333333333,,84.33333333333333
307,2016-02-29,37.416666666666664,,37.416666666666664
307,2016-03-01,83.45833333333333,,83.45833333333333
307,2016-03-02,87.125,,87.125
307,2016-03-03,87.58333333333333,,87.58333333333333
307,2016-03-04,48.125,,48.125
307,2016-03-05,74.33333333333333,,74.33333333333333
307,2016-03-06,91.54166666666667,,91.54166666666667
307,2016-03-07,88.91666666666667,,88.91666666666667
307,2016-03-08,74.79166666666667,,74.79166666666667
307,2016-03-09,90.0,,90.0
307,2016-03-10,48.083333333333336,,48.083333333333336
307,2016-03-11,69.75,,69.75
307,2016-03-12,17.583333333333332,,17.583333333333332
307,2016-03-13,8.041666666666666,,8.041666666666666
307,2016-03-14,2.4166666666666665,,2.4166666666666665
307,2016-03-15,8.708333333333334,,8.708333333333334
307,2016-03-16,15.375,,15.375
307,2016-03-17,14.0,,14.0
307,2016-03-18,13.666666666666666,,13.666666666666666
307,2016-03-19,13.166666666666666,,13.166666666666666
307,2016-03-20,7.791666666666667,,7.791666666666667
307,2016-03-21,12.541666666666666,,12.541666666666666
307,2016-03-22,12.833333333333334,,12.833333333333334
307,2016-03-23,5.25,,5.25
307,2016-03-24,10.791666666666666,,10.791666666666666
307,2016-03-25,5.708333333333333,,5.708333333333333
307,2016-03-26,12.625,,12.625
307,2016-03-27,8.375,,8.375
307,2016-03-28,3.3333333333333335,,3.3333333333333335
307,2016-03-29,14.041666666666666,,14.041666666666666
307,2016-03-30,13.833333333333334,,13.833333333333334
307,2016-03-31,9.25,,9.25
307,2016-04-01,5.0,,5.0
307,2016-04-02,3.2083333333333335,,3.2083333333333335
307,2016-04-03,10.916666666666666,,10.916666666666666
307,2016-04-04,1.25,,1.25
307,2016-04-05,14.958333333333334,,14.958333333333334
307,2016-04-06,10.958333333333334,,10.958333333333334
307,2016-04-07,4.041666666666667,,4.041666666666667
307,2016-04-08,4.541666666666667,,4.541666666666667
307,2016-04-09,5.5,,5.5
307,2016-04-10,14.291666666666666,,14.291666666666666
307,2016-04-11,4.583333333333333,,4.583333333333333
307,2016-04-12,5.416666666666667,,5.416666666666667
307,2016-04-13,14.208333333333334,,14.208333333333334
307,2016-04-14,13.916666666666666,,13.916666666666666
307,2016-04-15,14.041666666666666,,14.041666666666666
307,2016-04-16,121.125,,121.125
307,2016-04-17,118.20833333333333,,118.20833333333333
307,2016-04-18,116.125,,116.125
307,2016-04-19,113.83333333333333,,113.83333333333333
307,2016-04-20,133.20833333333334,,133.20833333333334
307,2016-04-21,122.58333333333333,,122.58333333333333
307,2016-04-22,81.91666666666667,,81.91666666666667
307,2016-04-23,96.25,,96.25
307,2016-04-24,130.58333333333334,,130.58333333333334
307,2016-04-25,90.66666666666667,,90.66666666666667
307,2016-04-26,23.166666666666668,,23.166666666666668
307,2016-04-27,131.33333333333334,,131.33333333333334
307,2016-04-28,91.66666666666667,,91.66666666666667
307,2016-04-29,70.75,,70.75
307,2016-04-30,124.41666666666667,,124.41666666666667
307,2016-05-01,19.416666666666668,,19.416666666666668
307,2016-05-02,38.708333333333336,,38.708333333333336
307,2016-05-03,22.583333333333332,,22.583333333333332
307,2016-05-04,20.875,,20.875
307,2016-05-05,53.5,,53.5
307,2016-05-06,37.125,,37.125
307,2016-05-07,43.458333333333336,,43.458333333333336
307,2016-05-08,92.91666666666667,,92.91666666666667
307,2016-05-09,123.125,,123.125
307,2016-05-10,100.58333333333333,,100.58333333333333
307,2016-05-11,128.25,,128.25
307,2016-05-12,124.83333333333333,,124.83333333333333
307,2016-05-13,20.416666666666668,,20.416666666666668
307,2016-05-14,101.625,,101.625
307,2016-05-15,84.33333333333333,,84.33333333333333
307,2016-05-16,137.125,,137.125
307,2016-05-17,72.83333333333333,,72.83333333333333
307,2016-05-18,93.70833333333333,,93.70833333333333
307,2016-05-19,90.875,,90.875
307,2016-05-20,126.375,,126.375
307,2016-05-21,54.833333333333336,,54.833333333333336
307,2016-05-22,82.54166666666667,,82.54166666666667
307,2016-05-23,96.875,,96.875
307,2016-05-24,60.875,,60.875
307,2016-05-25,125.0,,125.0
307,2016-05-26,110.375,,110.375
307,2016-05-27,82.5,,82.5
307,2016-05-28,98.0,,98.0
307,2016-05-29,112.25,,112.25
307,2016-05-30,85.95833333333333,,85.95833333333333
307,2016-05-31,117.08333333333333,,117.08333333333333
307,2016-06-01,118.91666666666667,,118.91666666666667
307,2016-06-02,120.54166666666667,,120.54166666666667
307,2016-06-03,25.666666666666668,,25.666666666666668
307,2016-06-04,94.16666666666667,,94.16666666666667
307,2016-06-05,15.541666666666666,,15.541666666666666
307,2016-06-06,122.375,,122.375
307,2016-06-07,108.08333333333333,,108.08333333333333
307,2016-06-08,74.08333333333333,,74.08333333333333
307,2016-06-09,141.875,,141.875
307,2016-06-10,121.29166666666667,,121.29166666666667
307,2016-06-11,79.375,,79.375
307,2016-06-12,132.04166666666666,,132.04166666666666
307,2016-06-13,118.75,,118.75
307,2016-06-14,135.95833333333334,,135.95833333333334
307,2016-06-15,130.41666666666666,,130.41666666666666
307,2016-06-16,62.25,,62.25
307,2016-06-17,111.41666666666667,,111.41666666666667
307,2016-06-18,128.66666666666666,,128.66666666666666
307,2016-06-19,126.5,,126.5
307,2016-06-20,115.70833333333333,,115.70833333333333
307,2016-06-21,124.04166666666667,,124.04166666666667
307,2016-06-22,121.91666666666667,,121.91666666666667
307,2016-06-23,86.625,,86.625
307,2016-06-24,124.20833333333333,,124.20833333333333
307,2016-06-25,127.16666666666667,,127.16666666666667
307,2016-06-26,117.0,,117.0
307,2016-06-27,96.95833333333333,,96.95833333333333
307,2016-06-28,33.958333333333336,,33.958333333333336
307,2016-06-29,115.625,,115.625
307,2016-06-30,119.75,,119.75
307,2016-07-01,81.25,,81.25
307,2016-07-02,105.66666666666667,,105.66666666666667
307,2016-07-03,112.375,,112.375
307,2016-07-04,120.58333333333333,,120.58333333333333
307,2016-07-05,94.125,,94.125
307,2016-07-06,109.875,,109.875
307,2016-07-07,82.33333333333333,,82.33333333333333
307,2016-07-08,86.41666666666667,,86.41666666666667
307,2016-07-09,28.541666666666668,,28.541666666666668
307,2016-07-10,86.16666666666667,,86.16666666666667
307,2016-07-11,107.875,,107.875
307,2016-07-12,103.66666666666667,,103.66666666666667
307,2016-07-13,87.20833333333333,,87.20833333333333
307,2016-07-14,50.541666666666664,,50.541666666666664
307,2016-07-15,95.95833333333333,,95.95833333333333
307,2016-07-16,95.5,,95.5
307,2016-07-17,111.20833333333333,,111.20833333333333
307,2016-07-18,87.79166666666667,,87.79166666666667
307,2016-07-19,117.875,,117.875
307,2016-07-20,120.95833333333333,,120.95833333333333
307,2016-07-21,113.54166666666667,,113.54166666666667
307,2016-07-22,99.25,,99.25
307,2016-07-23,116.29166666666667,,116.29166666666667
307,2016-07-24,108.33333333333333,,108.33333333333333
307,2016-07-25,82.5,,82.5
307,2016-07-26,112.25,,112.25
307,2016-07-27,116.5,,116.5
307,2016-07-28,100.54166666666667,,100.54166666666667
307,2016-07-29,81.75,,81.75
307,2016-07-30,62.541666666666664,,62.541666666666664
307,2016-07-31,33.291666666666664,,33.291666666666664
307,2016-08-01,45.041666666666664,,45.041666666666664
307,2016-08-02,67.33333333333333,,67.33333333333333
307,2016-08-03,117.125,,117.125
307,2016-08-04,114.875,,114.875
307,2016-08-05,98.33333333333333,,98.33333333333333
307,2016-08-06,71.16666666666667,,71.16666666666667
307,2016-08-07,111.58333333333333,,111.58333333333333
307,2016-08-08,101.66666666666667,,101.66666666666667
307,2016-08-09,109.66666666666667,,109.66666666666667
307,2016-08-10,42.375,,42.375
307,2016-08-11,81.33333333333333,,81.33333333333333
307,2016-08-12,82.16666666666667,,82.16666666666667
307,2016-08-13,96.75,,96.75
307,2016-08-14,103.29166666666667,,103.29166666666667
307,2016-08-15,99.70833333333333,,99.70833333333333
307,2016-08-16,64.625,,64.625
307,2016-08-17,102.95833333333333,,102.95833333333333
307,2016-08-18,93.70833333333333,,93.70833333333333
307,2016-08-19,104.66666666666667,,104.66666666666667
307,2016-08-20,106.70833333333333,,106.70833333333333
307,2016-08-21,76.5,,76.5
307,2016-08-22,111.70833333333333,,111.70833333333333
307,2016-08-23,108.66666666666667,,108.66666666666667
307,2016-08-24,103.79166666666667,,103.79166666666667
307,2016-08-25,75.41666666666667,,75.41666666666667
307,2016-08-26,81.66666666666667,,81.66666666666667
307,2016-08-27,99.08333333333333,,99.08333333333333
307,2016-08-28,94.0,,94.0
307,2016-08-29,91.95833333333333,,91.95833333333333
307,2016-08-30,100.875,,100.875
307,2016-08-31,50.541666666666664,,50.541666666666664
307,2016-09-01,44.25,,44.25
307,2016-09-02,99.95833333333333,,99.95833333333333
307,2016-09-03,73.25,,73.25
307,2016-09-04,97.875,,97.875
307,2016-09-05,81.70833333333333,,81.70833333333333
307,2016-09-06,53.666666666666664,,53.666666666666664
307,2016-09-07,54.083333333333336,,54.083333333333336
307,2016-09-08,90.16666666666667,,90.16666666666667
307,2016-09-09,55.166666666666664,,55.166666666666664
307,2016-09-10,74.41666666666667,,74.41666666666667
307,2016-09-11,75.875,,75.875
307,2016-09-12,97.125,,97.125
307,2016-09-13,89.29166666666667,,89.29166666666667
307,2016-09-14,82.75,,82.75
307,2016-09-15,96.45833333333333,,96.45833333333333
307,2016-09-16,92.91666666666667,,92.91666666666667
307,2016-09-17,86.79166666666667,,86.79166666666667
307,2016-09-18,31.458333333333332,,31.458333333333332
307,2016-09-19,18.375,,18.375
307,2016-09-20,58.375,,58.375
307,2016-09-21,84.125,,84.125
307,2016-09-22,85.375,,85.375
307,2016-09-23,66.33333333333333,,66.33333333333333
307,2016-09-24,81.95833333333333,,81.95833333333333
307,2016-09-25,90.33333333333333,,90.33333333333333
307,2016-09-26,74.25,,74.25
307,2016-09-27,68.95833333333333,,68.95833333333333
307,2016-09-28,34.666666666666664,,34.666666666666664
307,2016-09-29,32.458333333333336,,32.458333333333336
307,2016-09-30,15.916666666666666,,15.916666666666666
307,2016-10-01,18.625,,18.625
307,2016-10-02,19.666666666666668,,19.666666666666668
307,2016-10-03,53.583333333333336,,53.583333333333336
307,2016-10-04,48.916666666666664,,48.916666666666664
307,2016-10-05,80.125,,80.125
307,2016-10-06,77.375,,77.375
307,2016-10-07,75.29166666666667,,75.29166666666667
307,2016-10-08,31.25,,31.25
307,2016-10-09,13.708333333333334,,13.708333333333334
307,2016-10-10,80.41666666666667,,80.41666666666667
307,2016-10-11,75.625,,75.625
307,2016-10-12,53.666666666666664,,53.666666666666664
307,2016-10-13,32.916666666666664,,32.916666666666664
307,2016-10-14,75.45833333333333,,75.45833333333333
307,2016-10-15,72.375,,72.375
307,2016-10-16,54.0,,54.0
307,2016-10-17,52.666666666666664,,52.666666666666664
307,2016-10-18,64.33333333333333,,64.33333333333333
307,2016-10-19,55.416666666666664,,55.416666666666664
307,2016-10-20,33.791666666666664,,33.791666666666664
307,2016-10-21,14.5,,14.5
307,2016-10-22,15.458333333333334,,15.458333333333334
307,2016-10-23,61.333333333333336,,61.333333333333336
307,2016-10-24,51.666666666666664,,51.666666666666664
307,2016-10-25,39.291666666666664,,39.291666666666664
307,2016-10-26,60.791666666666664,,60.791666666666664
307,2016-10-27,4.75,,4.75
307,2016-10-28,53.916666666666664,,53.916666666666664
307,2016-10-29,43.75,,43.75
307,2016-10-30,35.541666666666664,,35.541666666666664
307,2016-10-31,61.416666666666664,,61.416666666666664
307,2016-11-01,57.583333333333336,,57.583333333333336
307,2016-11-02,50.333333333333336,,50.333333333333336
307,2016-11-03,18.25,,18.25
307,2016-11-04,52.958333333333336,,52.958333333333336
307,2016-11-05,47.208333333333336,,47.208333333333336
307,2016-11-06,57.416666666666664,,57.416666666666664
307,2016-11-07,55.916666666666664,,55.916666666666664
307,2016-11-08,53.541666666666664,,53.541666666666664
307,2016-11-09,11.0,,11.0
307,2016-11-10,52.666666666666664,,52.666666666666664
307,2016-11-11,47.208333333333336,,47.208333333333336
307,2016-11-12,52.875,,52.875
307,2016-11-13,48.541666666666664,,48.541666666666664
307,2016-11-14,48.083333333333336,,48.083333333333336
307,2016-11-15,3.1666666666666665,,3.1666666666666665
307,2016-11-16,46.875,,46.875
307,2016-11-17,46.875,,46.875
307,2016-11-18,47.291666666666664,,47.291666666666664
307,2016-11-19,45.833333333333336,,45.833333333333336
307,2016-11-20,18.458333333333332,,18.458333333333332
307,2016-11-21,16.5,,16.5
307,2016-11-22,49.208333333333336,,49.208333333333336
307,2016-11-23,43.083333333333336,,43.083333333333336
307,2016-11-24,14.0,,14.0
307,2016-11-25,18.291666666666668,,18.291666666666668
307,2016-11-26,23.708333333333332,,23.708333333333332
307,2016-11-27,38.125,,38.125
307,2016-11-28,43.041666666666664,,43.041666666666664
307,2016-11-29,1.6666666666666667,,1.6666666666666667
307,2016-11-30,7.541666666666667,,7.541666666666667
307,2016-12-01,23.708333333333332,,23.708333333333332
307,2016-12-02,38.666666666666664,,38.666666666666664
307,2016-12-03,29.416666666666668,,29.416666666666668
307,2016-12-04,41.041666666666664,,41.041666666666664
307,2016-12-05,24.916666666666668,,24.916666666666668
307,2016-12-06,22.583333333333332,,22.583333333333332
307,2016-12-07,17.75,,17.75
307,2016-12-08,20.125,,20.125
307,2016-12-09,35.166666666666664,,35.166666666666664
307,2016-12-10,29.916666666666668,,29.916666666666668
307,2016-12-11,22.833333333333332,,22.833333333333332
307,2016-12-12,11.416666666666666,,11.416666666666666
307,2016-12-13,6.583333333333333,,6.583333333333333
307,2016-12-14,39.25,,39.25
307,2016-12-15,32.416666666666664,,32.416666666666664
307,2016-12-16,32.416666666666664,,32.416666666666664
307,2016-12-17,0.0,,0.0
307,2016-12-18,0.7083333333333334,,0.7083333333333334
307,2016-12-19,39.458333333333336,,39.458333333333336
307,2016-12-20,41.75,,41.75
307,2016-12-21,23.958333333333332,,23.958333333333332
307,2016-12-22,26.208333333333332,,26.208333333333332
307,2016-12-23,36.208333333333336,,36.208333333333336
307,2016-12-24,10.291666666666666,,10.291666666666666
307,2016-12-25,40.041666666666664,,40.041666666666664
307,2016-12-26,12.5,,12.5
307,2016-12-27,26.291666666666668,,26.291666666666668
307,2016-12-28,21.416666666666668,,21.416666666666668
307,2016-12-29,2.4583333333333335,,2.4583333333333335
307,2016-12-30,26.833333333333332,,26.833333333333332
307,2016-12-31,21.291666666666668,,21.291666666666668
307,2017-01-01,41.708333333333336,,41.708333333333336
307,2017-01-02,7.625,,7.625
307,2017-01-03,4.291666666666667,,4.291666666666667
307,2017-01-04,19.125,,19.125
307,2017-01-05,29.458333333333332,,29.458333333333332
307,2017-01-06,29.875,,29.875
307,2017-01-07,2.2083333333333335,,2.2083333333333335
307,2017-01-08,1.375,,1.375
307,2017-01-09,10.833333333333334,,10.833333333333334
307,2017-01-10,19.375,,19.375
307,2017-01-11,32.208333333333336,,32.208333333333336
307,2017-01-12,11.875,,11.875
307,2017-01-13,48.541666666666664,,48.541666666666664
307,2017-01-14,25.25,,25.25
307,2017-01-15,33.458333333333336,,33.458333333333336
307,2017-01-16,48.333333333333336,,48.333333333333336
307,2017-01-17,5.958333333333333,,5.958333333333333
307,2017-01-18,10.125,,10.125
307,2017-01-19,32.25,,32.25
307,2017-01-20,14.333333333333334,,14.333333333333334
307,2017-01-21,30.75,,30.75
307,2017-01-22,11.833333333333334,,11.833333333333334
307,2017-01-23,7.708333333333333,,7.708333333333333
307,2017-01-24,7.333333333333333,,7.333333333333333
307,2017-01-25,44.458333333333336,,44.458333333333336
307,2017-01-26,31.583333333333332,,31.583333333333332
307,2017-01-27,16.291666666666668,,16.291666666666668
307,2017-01-28,14.458333333333334,,14.458333333333334
307,2017-01-29,48.291666666666664,,48.291666666666664
307,2017-01-30,49.291666666666664,,49.291666666666664
307,2017-01-31,6.166666666666667,,6.166666666666667
307,2017-02-01,28.625,,28.625
307,2017-02-02,47.583333333333336,,47.583333333333336
307,2017-02-03,51.833333333333336,,51.833333333333336
307,2017-02-04,67.75,,67.75
307,2017-02-05,28.041666666666668,,28.041666666666668
307,2017-02-06,62.833333333333336,,62.833333333333336
307,2017-02-07,5.458333333333333,,5.458333333333333
307,2017-02-08,51.541666666666664,,51.541666666666664
307,2017-02-09,0.041666666666666664,,0.041666666666666664
307,2017-02-10,4.291666666666667,,4.291666666666667
307,2017-02-11,7.75,,7.75
307,2017-02-12,0.0,,0.0
307,2017-02-13,6.208333333333333,,6.208333333333333
307,2017-02-14,10.416666666666666,,10.416666666666666
307,2017-02-15,15.875,,15.875
307,2017-02-16,38.333333333333336,,38.333333333333336
307,2017-02-17,53.541666666666664,,53.541666666666664
307,2017-02-18,64.20833333333333,,64.20833333333333
307,2017-02-19,61.125,,61.125
307,2017-02-20,78.375,,78.375
307,2017-02-21,60.208333333333336,,60.208333333333336
307,2017-02-22,21.0,,21.0
307,2017-02-23,68.08333333333333,,68.08333333333333
307,2017-02-24,73.54166666666667,,73.54166666666667
307,2017-02-25,37.125,,37.125
307,2017-02-26,54.583333333333336,,54.583333333333336
307,2017-02-27,64.20833333333333,,64.20833333333333
307,2017-02-28,71.08333333333333,,71.08333333333333
307,2017-03-01,12.083333333333334,,12.083333333333334
307,2017-03-02,85.33333333333333,,85.33333333333333
307,2017-03-03,72.625,,72.625
307,2017-03-04,72.04166666666667,,72.04166666666667
307,2017-03-05,98.08333333333333,,98.08333333333333
307,2017-03-06,81.54166666666667,,81.54166666666667
307,2017-03-07,17.916666666666668,,17.916666666666668
307,2017-03-08,74.29166666666667,,74.29166666666667
307,2017-03-09,95.0,,95.0
307,2017-03-10,2.1666666666666665,,2.1666666666666665
307,2017-03-11,29.375,,29.375
307,2017-03-12,81.91666666666667,,81.91666666666667
307,2017-03-13,92.5,,92.5
307,2017-03-14,0.0,,0.0
307,2017-03-15,0.7083333333333334,,0.7083333333333334
307,2017-03-16,3.3333333333333335,,3.3333333333333335
307,2017-03-17,6.25,,6.25
307,2017-03-18,1.625,,1.625
307,2017-03-19,12.833333333333334,,12.833333333333334
307,2017-03-20,39.125,,39.125
307,2017-03-21,75.5,,75.5
307,2017-03-22,112.16666666666667,,112.16666666666667
307,2017-03-23,108.375,,108.375
307,2017-03-24,36.875,,36.875
307,2017-03-25,31.375,,31.375
307,2017-03-26,22.083333333333332,,22.083333333333332
307,2017-03-27,29.833333333333332,,29.833333333333332
307,2017-03-28,11.875,,11.875
307,2017-03-29,105.66666666666667,,105.66666666666667
307,2017-03-30,83.0,,83.0
307,2017-03-31,9.333333333333334,,9.333333333333334
307,2017-04-01,50.791666666666664,,50.791666666666664
307,2017-04-02,99.5,,99.5
307,2017-04-03,81.91666666666667,,81.91666666666667
307,2017-04-04,15.25,,15.25
307,2017-04-05,62.125,,62.125
307,2017-04-06,8.166666666666666,,8.166666666666666
307,2017-04-07,43.875,,43.875
307,2017-04-08,84.91666666666667,,84.91666666666667
307,2017-04-09,103.54166666666667,,103.54166666666667
307,2017-04-10,94.79166666666667,,94.79166666666667
307,2017-04-11,95.29166666666667,,95.29166666666667
307,2017-04-12,48.916666666666664,,48.916666666666664
307,2017-04-13,98.875,,98.875
307,2017-04-14,106.79166666666667,,106.79166666666667
307,2017-04-15,79.375,,79.375
307,2017-04-16,67.5,,67.5
307,2017-04-17,84.95833333333333,,84.95833333333333
307,2017-04-18,114.33333333333333,,114.33333333333333
307,2017-04-19,76.75,,76.75
307,2017-04-20,52.916666666666664,,52.916666666666664
307,2017-04-21,23.375,,23.375
307,2017-04-22,26.166666666666668,,26.166666666666668
307,2017-04-23,109.16666666666667,,109.16666666666667
307,2017-04-24,57.75,,57.75
307,2017-04-25,20.166666666666668,,20.166666666666668
307,2017-04-26,29.541666666666668,,29.541666666666668
307,2017-04-27,36.333333333333336,,36.333333333333336
307,2017-04-28,95.75,,95.75
307,2017-04-29,84.375,,84.375
307,2017-04-30,44.375,,44.375
307,2017-05-01,55.0,,55.0
307,2017-05-02,80.0,,80.0
307,2017-05-03,79.125,,79.125
307,2017-05-04,112.91666666666667,,112.91666666666667
307,2017-05-05,13.875,,13.875
307,2017-05-06,60.291666666666664,,60.291666666666664
307,2017-05-07,46.041666666666664,,46.041666666666664
307,2017-05-08,98.16666666666667,,98.16666666666667
307,2017-05-09,88.75,,88.75
307,2017-05-10,108.33333333333333,,108.33333333333333
307,2017-05-11,84.375,,84.375
307,2017-05-12,100.33333333333333,,100.33333333333333
307,2017-05-13,24.583333333333332,,24.583333333333332
307,2017-05-14,105.66666666666667,,105.66666666666667
307,2017-05-15,109.08333333333333,,109.08333333333333
307,2017-05-16,101.875,,101.875
307,2017-05-17,115.58333333333333,,115.58333333333333
307,2017-05-18,107.70833333333333,,107.70833333333333
307,2017-05-19,104.0,,104.0
307,2017-05-20,70.5,,70.5
307,2017-05-21,120.54166666666667,,120.54166666666667
307,2017-05-22,24.25,,24.25
307,2017-05-23,75.41666666666667,,75.41666666666667
307,2017-05-24,88.33333333333333,,88.33333333333333
307,2017-05-25,16.5,,16.5
307,2017-05-26,89.875,,89.875
307,2017-05-27,74.75,,74.75
307,2017-05-28,94.91666666666667,,94.91666666666667
307,2017-05-29,25.458333333333332,,25.458333333333332
307,2017-05-30,39.875,,39.875
307,2017-05-31,86.0,,86.0
307,2017-06-01,103.58333333333333,,103.58333333333333
307,2017-06-02,98.875,,98.875
307,2017-06-03,100.29166666666667,,100.29166666666667
307,2017-06-04,51.583333333333336,,51.583333333333336
307,2017-06-05,31.0,,31.0
307,2017-06-06,30.708333333333332,,30.708333333333332
307,2017-06-07,85.54166666666667,,85.54166666666667
307,2017-06-08,90.70833333333333,,90.70833333333333
307,2017-06-09,107.25,,107.25
307,2017-06-10,97.83333333333333,,97.83333333333333
307,2017-06-11,119.08333333333333,,119.08333333333333
307,2017-06-12,118.25,,118.25
307,2017-06-13,109.41666666666667,,109.41666666666667
307,2017-06-14,115.125,,115.125
307,2017-06-15,90.66666666666667,,90.66666666666667
307,2017-06-16,31.541666666666668,,31.541666666666668
307,2017-06-17,40.541666666666664,,40.541666666666664
307,2017-06-18,71.45833333333333,,71.45833333333333
307,2017-06-19,45.583333333333336,,45.583333333333336
307,2017-06-20,123.5,,123.5
307,2017-06-21,95.83333333333333,,95.83333333333333
307,2017-06-22,118.5,,118.5
307,2017-06-23,58.5,,58.5
307,2017-06-24,106.20833333333333,,106.20833333333333
307,2017-06-25,106.41666666666667,,106.41666666666667
307,2017-06-26,122.125,,122.125
307,2017-06-27,95.66666666666667,,95.66666666666667
307,2017-06-28,123.25,,123.25
307,2017-06-29,99.91666666666667,,99.91666666666667
307,2017-06-30,84.5,,84.5
307,2017-07-01,55.75,,55.75
307,2017-07-02,113.54166666666667,,113.54166666666667
307,2017-07-03,115.41666666666667,,115.41666666666667
307,2017-07-04,117.41666666666667,,117.41666666666667